Terug naar catalogus

STARLINK-6353

ActiefCommunicatieVLEO
NORAD 57056·PAYLOAD·🇺🇸 United States

Gelanceerd Jun 22, 2023 vanaf Vandenberg Space Force Base

Loading…

Volgende Passages (komende 24 uur)

TLE

VersSource: CelesTrak SupGP

Epoch: Sep 15, 2026, 03:07 UTC

1 57056C 23088J   26258.13034722  .00045346  00000+0  16426-2 0  2589
2 57056  43.0001 120.4939 0001716 260.4251 275.2324 15.27551370    18

Volg STARLINK-6353 in realtime met AllMySat

Download on the App Store